User: anonymous   Login
Location: Krasnoyarskiy Pitomnik
(51.1333°N, 71.6167°E)
Time: 00:17:25
(UTC+00:00)
Language:

Cosmos 1328 Rocket - Orbit

View from above orbital plane
View from above orbital plane
View from above satellite
View from above satellite

Ground track
Ground track

The orbit data is extracted from the following two-line orbital elements,

1 12988U 81117B   22222.39890913  .00000240  00000-0  25142-4 0  9992
2 12988  82.5241 109.4457 0019417 112.8923 247.4345 14.84983274177767
Epoch (UTC): 10 August 2022 09:34:25
Eccentricity: 0.0019417
inclination: 82.5241°
perigee height: 600 km
apogee height: 627 km
right ascension of ascending node: 109.4457°
argument of perigee: 112.8923°
revolutions per day: 14.84983274
mean anomaly at epoch: 247.4345°
orbit number at epoch: 17776

The dashed part of the orbit path shows where the satellite is in the earth's shadow,  

DLR